Regional Weather Roundup
Issued by NWS

Home | Current Version | Previous Version | Text Only | Print | Product List | Glossary Off
Versions: 1 2 3 4 5 6 7 8 9 10 11 12 13 14 15 16 17 18 19 20 21 22 23 24 25 26 27 28 29 30 31 32 33 34 35 36 37 38 39 40 41 42 43 44 45 46 47 48 49 50

000
ASUS43 KMPX 200110
RWRMN
WEATHER ROUNDUP FOR MINNESOTA
NATIONAL WEATHER SERVICE TWIN CITIES/CHANHASSEN MN
800 PM CDT SUN APR 19 2015


NOTE: "FAIR" INDICATES FEW OR NO CLOUDS BELOW 12,000 FEET WITH NO
SIGNIFICANT WEATHER AND/OR OBSTRUCTIONS TO VISIBILITY. N/A MEANS
CURRENT SKY AND/OR WEATHER CONDITIONS ARE NOT AVAILABLE.

MNZ060>063-068>070-200200-
   Twin Cities Metro

CITY           SKY/WX    TMP DP  RH WIND       PRES   REMARKS
TWIN CITIES    LGT RAIN  49  45  86 NW13      29.60F
ST PAUL        LGT RAIN  49  45  86 NW14      29.60F
CRYSTAL        CLOUDY    50  41  71 NW15G24   29.59F
BLAINE         DRIZZLE   48  46  93 NW12      29.60S
LAKEVILLE      LGT RAIN  46  45  93 NW13      29.59F
EDEN PRAIRIE   CLOUDY    49  41  74 NW13G22   29.59F
SOUTH ST PAUL  LGT RAIN  49  45  88 NW12G17   29.59F
LAKE ELMO      DRIZZLE   48  45  87 NW9       29.59F
$$
MNZ001>005-007-008-013>017-022>024-027-028-200200-
   Northwest Minnesota

CITY           SKY/WX    TMP DP  RH WIND       PRES   REMARKS
BEMIDJI        CLOUDY    38  36  92 NW18      29.65S
HALLOCK        CLOUDY    39  34  81 NW18G29   29.73R
ROSEAU         CLOUDY    37  34  87 NW15      29.66R
WARROAD        DRIZZLE   37  36  93 NW12G18   29.65R
THIEF RVR FALL CLOUDY    39  34  81 NW25      29.71R
CROOKSTON      MOCLDY    41  37  87 N22       29.74R
FOSSTON        CLOUDY    37  34  87 NW18G30   29.71R
DETROIT LAKES  CLOUDY    41  37  87 NW16G24   29.71S
MOORHEAD       MOCLDY    45  37  76 N16       29.74R
PARK RAPIDS    CLOUDY    43  36  76 NW16      29.65S
MAHNOMEN       CLOUDY    40  36  87 NW16      29.71R
$$
MNZ006-009>011-018-025>026-200200-
   North Central Minnesota

CITY           SKY/WX    TMP DP  RH WIND       PRES   REMARKS
BAUDETTE       CLOUDY    39  36  89 NW16      29.62R
FLAG ISLAND    DRIZZLE   36  34  93 NW21G28   29.61R
INTL FALLS     LGT RAIN  43  41  93 CALM      29.55S FOG
WASKISH        CLOUDY    39  37  93 W10       29.63R
BIG FORK       DRIZZLE   43  39  87 W9G16     29.58R
LONGVILLE      CLOUDY    41  37  87 W14G20    29.63R
GRAND RAPIDS   CLOUDY    43  39  87 W14       29.58S
ORR            DRIZZLE   43  39  87 CALM      29.53F
COOK           CLOUDY    43  43 100 W3        29.56S
WALKER         CLOUDY    39  36  87 NW13      29.64R
$$
MNZ012-019>021-037-200200-
   Northeast Minnesota

CITY           SKY/WX    TMP DP  RH WIND       PRES   REMARKS
DULUTH         DRZL/FOG  37  35  92 SW6       29.56F VSB 1/4
ELY            CLOUDY    41  39  93 CALM      29.55S FOG
HIBBING        CLOUDY    45  42  89 CALM      29.56S
EVELETH        CLOUDY    43  43 100 W3        29.57S
DULUTH HARBOR  CLOUDY    37  36  93 E8        29.60F
TWO HARBORS    CLOUDY    43  37  81 CALM      29.55F HAZE
SILVER BAY     CLOUDY    39  37  93 CALM      29.55S
GRAND MARAIS     N/A     39  37  92 NE7       29.57F
G MARAIS ARPRT DRIZZLE   37  36  93 NE3       29.55F
$$
MNZ029>031-032-039>041-046>048-054>057-064-200200-
   West Central Minnesota

CITY           SKY/WX    TMP DP  RH WIND       PRES   REMARKS
FERGUS FALLS   MOCLDY    43  36  75 N13G25    29.73S
WHEATON        MOCLDY    45  37  76 NW12G20   29.75F
MORRIS         CLOUDY    45  37  76 N17       29.70S
ALEXANDRIA     CLOUDY    43  36  76 N22G32    29.69R
ELBOW LAKE     CLOUDY    43  38  81 N21       29.71S
WADENA         CLOUDY    39  36  87 NW12G22   29.67S
GLENWOOD       CLOUDY    45  37  76 NW22G28   29.67F
APPLETON       CLOUDY    46  37  71 N20G25    29.71F
BENSON         CLOUDY    45  37  76 N18G30    29.70S
ORTONVILLE     CLOUDY    46  36  66 N17G25    29.72S
MADISON        CLOUDY    48  36  61 N20G25    29.72S
WILLMAR        FAIR      48  41  76 NW21G26   29.67F
$$
MNZ033>034-036-042>043-049>051-058-059-200200-
   Central Minnesota

CITY           SKY/WX    TMP DP  RH WIND       PRES   REMARKS
ST CLOUD       CLOUDY    47  39  74 NW16      29.61F
SAUK CENTRE    CLOUDY    44  38  78 NW16G26   29.65S
PAYNESVILLE    CLOUDY    43  39  85 W10       29.65F
AITKIN         CLOUDY    48  41  76 W9        29.58S
PINE RIVER     CLOUDY    43  37  81 W8G16     29.67R
BRAINERD       CLOUDY    45  38  76 NW14      29.62S
STAPLES        CLOUDY    39  36  87 NW16G24   29.65S
LONG PRAIRIE   CLOUDY    41  36  81 NW21G30   29.66S
LITTLE FALLS   CLOUDY    45  36  70 W12       29.63S
LITCHFIELD     CLOUDY    48  43  81 NW13      29.64F
BUFFALO        CLOUDY    48  38  68 W13G20    29.63S
MAPLE LAKE     CLOUDY    48  42  78 NW9       29.63F
$$
MNZ037-044-045-052-053-200200-
   East Central Minnesota

CITY           SKY/WX    TMP DP  RH WIND       PRES   REMARKS
PRINCETON      CLOUDY    48  41  76 NW13G20   29.61S
MORA           CLOUDY    46  41  81 NW10G17   29.60S
CAMBRIDGE      LGT RAIN  50  39  66 W9        29.58S
RUSH CITY      LGT RAIN  47  44  89 NW10      29.58F
MOOSE LAKE     DRIZZLE   41  41 100 CALM      29.55F
HINCKLEY       LGT RAIN  46  45  93 NW7       29.58S
CLOQUET        DRZL/FOG  37  37 100 CALM      29.57F VSB 3/4
MCGREGOR       CLOUDY    45  43  93 NW8       29.59S
$$
MNZ071>073-080-081-089-090-097-098-200200-
   Southwest Minnesota

CITY           SKY/WX    TMP DP  RH WIND       PRES   REMARKS
MONTEVIDEO     CLOUDY    46  39  76 N18G30    29.71R
GRANITE FALLS  CLOUDY    47  40  76 NW17G25   29.71R
CANBY          CLOUDY    48  37  65 N15       29.73S
MARSHALL       CLOUDY    46  36  66 N20       29.69S
REDWOOD FALLS  CLOUDY    49  39  68 NW15G24   29.66F
OLIVIA         CLOUDY    46  37  71 NW14G24   29.66S
PIPESTONE      CLOUDY    48  34  57 N17G28    29.71S
WORTHINGTON    CLOUDY    48  37  66 NW14      29.68F
JACKSON        CLOUDY    50  37  62 NW20G29   29.66S
TRACY          CLOUDY    49  38  65 NW15G22   29.69S
SLAYTON        CLOUDY    47  36  66 NW14G26   29.70S
$$
MNZ065>067-074>077-082>085-091>093-200200-
   South Central Minnesota

CITY           SKY/WX    TMP DP  RH WIND       PRES   REMARKS
MANKATO        CLOUDY    48  37  66 NW14      29.63F
NEW ULM        CLOUDY    48  39  71 NW13      29.65S
ST JAMES       CLOUDY    50  39  66 NW17      29.66S
FAIRMONT       CLOUDY    48  30  49 NW15      29.64S
GLENCOE        CLOUDY    49  42  77 NW17G23   29.62F
FARIBAULT      LGT RAIN  46  45  93 NW12      29.61S
OWATONNA       LGT RAIN  46  43  87 NW16      29.61S
ALBERT LEA     LGT RAIN  46  45  93 NW12G18   29.60F
$$
MNZ078>079-086>088-094>096-200200-
   Southeast Minnesota

CITY           SKY/WX    TMP DP  RH WIND       PRES   REMARKS
ROCHESTER      LGT RAIN  49  45  86 NW23G31   29.55F
RED WING       DRIZZLE   48  48 100 NW8G17    29.55F
STANTON        DRIZZLE   48  44  86 NW14G21   29.58F
DODGE CENTER   DRIZZLE   46  45  93 NW18      29.58R
WINONA         RAIN      54  52  94 NW8       29.53R
AUSTIN         DRIZZLE   46  43  87 NW21      29.57F
PRESTON        RAIN      49  47  93 NW12      29.54R
$$
ABBREVIATIONS USED IN REMARKS
   TC - TEMPERATURES IN CELSIUS
  WCI - WIND CHILL INDEX
   HX - HEAT INDEX
  VSB - VISIBILITY
$$


USA.gov is the U.S. government's official web portal to all federal, state and local government web resources and services.